Date,TemperatureHighF,TemperatureAvgF,TemperatureLowF,DewpointHighF,DewpointAvgF,DewpointLowF,HumidityHigh,HumidityAvg,HumidityLow,PressureMaxIn,PressureMinIn,WindSpeedMaxMPH,WindSpeedAvgMPH,GustSpeedMaxMPH,PrecipitationSumIn
2013-1-1,19.0,13.8,8.0,-99.9,-99.9,-99.9,0,0,100,0.00,40.00,10,5,14,0.00
2013-1-2,32.0,18.7,5.0,-99.9,-99.9,-99.9,0,0,100,0.00,40.00,7,3,11,0.00
2013-1-3,31.0,24.3,13.0,-99.9,-99.9,-99.9,0,0,100,0.00,40.00,15,6,20,0.00
2013-1-4,37.0,21.7,9.0,-99.9,-99.9,-99.9,0,0,100,0.00,40.00,8,4,13,0.00
2013-1-5,37.0,29.2,18.0,-99.9,-99.9,-99.9,0,0,100,0.00,40.00,10,4,21,0.00
2013-1-6,29.0,23.0,18.0,-99.9,-99.9,-99.9,0,0,100,0.00,40.00,9,4,16,0.00
2013-1-7,40.0,28.7,17.0,-99.9,-99.9,-99.9,0,0,100,0.00,40.00,12,5,14,0.00
2013-1-8,44.0,34.4,28.0,-99.9,-99.9,-99.9,0,0,100,0.00,40.00,11,4,16,0.00
2013-1-9,45.0,37.2,30.0,-99.9,-99.9,-99.9,0,0,100,0.00,40.00,9,4,16,0.00
2013-1-10,41.0,34.6,29.0,-99.9,-99.9,-99.9,0,0,100,0.00,40.00,13,6,19,0.33
2013-1-11,54.0,46.4,37.0,-99.9,-99.9,-99.9,0,0,100,0.00,40.00,13,7,18,0.33
2013-1-12,54.0,34.5,23.0,-99.9,-99.9,-99.9,0,0,100,0.00,40.00,17,7,22,0.00
2013-1-13,22.0,17.6,13.0,-99.9,-99.9,-99.9,0,0,100,0.00,40.00,10,5,17,0.00
2013-1-14,27.0,17.0,7.0,-99.9,-99.9,-99.9,0,0,100,0.00,40.00,5,2,8,0.00
2013-1-15,29.0,18.8,9.0,-99.9,-99.9,-99.9,0,0,100,0.00,40.00,7,2,8,0.00
2013-1-16,40.0,27.5,14.0,-99.9,-99.9,-99.9,0,0,100,0.00,40.00,9,4,14,0.00
2013-1-17,38.0,28.9,22.0,-99.9,-99.9,-99.9,0,0,100,0.00,40.00,12,5,18,0.00
2013-1-18,50.0,37.4,23.0,-99.9,-99.9,-99.9,0,0,100,0.00,40.00,14,8,20,0.00
2013-1-19,51.0,41.0,25.0,-99.9,-99.9,-99.9,0,0,100,0.00,40.00,16,6,32,0.00
2013-1-20,24.0,16.3,12.0,-99.9,-99.9,-99.9,0,0,100,0.00,40.00,14,6,23,0.00
2013-1-21,14.0,8.0,3.0,-99.9,-99.9,-99.9,0,0,100,0.00,40.00,11,8,22,0.00
2013-1-22,14.0,8.7,2.0,-99.9,-99.9,-99.9,0,0,100,0.00,40.00,8,5,16,0.00
2013-1-23,29.0,19.7,13.0,-99.9,-99.9,-99.9,0,0,100,0.00,40.00,17,7,24,0.00
2013-1-24,22.0,13.9,6.0,-99.9,-99.9,-99.9,0,0,100,0.00,40.00,15,9,21,0.00
2013-1-25,36.0,26.7,19.0,-99.9,-99.9,-99.9,0,0,100,0.00,40.00,13,7,21,0.00
2013-1-26,32.0,21.1,10.0,-99.9,-99.9,-99.9,0,0,100,0.00,40.00,8,5,12,0.00
2013-1-27,40.0,33.0,29.0,-99.9,-99.9,-99.9,0,0,100,0.00,40.00,13,8,18,0.23
2013-1-28,52.0,41.1,37.0,-99.9,-99.9,-99.9,0,0,100,0.00,40.00,8,5,10,0.01
2013-1-29,58.0,48.9,35.0,-99.9,-99.9,-99.9,0,0,100,0.00,40.00,14,5,24,0.69
2013-1-30,35.0,27.8,17.0,-99.9,-99.9,-99.9,0,0,100,0.00,40.00,19,10,28,0.11
2013-1-31,13.0,9.0,4.0,-99.9,-99.9,-99.9,0,0,100,0.00,40.00,12,8,22,0.00